• In Russia
  • List of Countries
  • For 7 days
  • Water Temperature
  • Satellite Maps
  • Weather Map
  • Weather Widgets
  • user-avatar
    Login

    Hourly Weather Asuan

    Today, 22 May, Tuesday

    Time Temperature Precipitation Wind Pressure Humidity
    00:00 +36°C° 0 mm 4 mps 740 mmHg 18%
    01:00 +36°C° 0 mm 3 mps 740 mmHg 20%
    02:00 +35°C° 0 mm 3 mps 740 mmHg 21%
    03:00 +34°C° 0 mm 3 mps 740 mmHg 22%
    04:00 +34°C° 0 mm 3 mps 740 mmHg 24%
    05:00 +33°C° 0 mm 3 mps 741 mmHg 25%
    06:00 +35°C° 0 mm 4 mps 741 mmHg 23%
    07:00 +37°C° 0 mm 4 mps 741 mmHg 21%
    08:00 +40°C° 0 mm 5 mps 742 mmHg 19%
    09:00 +41°C° 0 mm 5 mps 742 mmHg 17%
    10:00 +43°C° 0 mm 5 mps 742 mmHg 15%
    11:00 +46°C° 0 mm 5 mps 741 mmHg 13%
    12:00 +45°C° 0 mm 4 mps 741 mmHg 12%
    13:00 +47°C° 0 mm 4 mps 741 mmHg 11%
    14:00 +47°C° 0 mm 3 mps 740 mmHg 10%
    15:00 +47°C° 0 mm 3 mps 740 mmHg 9%
    16:00 +47°C° 0 mm 3 mps 740 mmHg 9%
    17:00 +47°C° 0 mm 3 mps 739 mmHg 9%
    18:00 +45°C° 0 mm 3 mps 740 mmHg 10%
    19:00 +43°C° 0 mm 3 mps 740 mmHg 10%
    20:00 +41°C° 0 mm 2 mps 740 mmHg 11%
    21:00 +40°C° 0 mm 3 mps 740 mmHg 12%
    22:00 +40°C° 0 mm 4 mps 741 mmHg 13%
    23:00 +40°C° 0 mm 4 mps 741 mmHg 14%

    Tomorrow, 23 May, Wednesday

    Time Temperature Precipitation Wind Pressure Humidity
    00:00 +38°C° 0 mm 4 mps 741 mmHg 15%
    01:00 +37°C° 0 mm 3 mps 741 mmHg 16%
    02:00 +36°C° 0 mm 3 mps 741 mmHg 17%
    03:00 +36°C° 0 mm 3 mps 741 mmHg 18%
    04:00 +36°C° 0 mm 3 mps 741 mmHg 18%
    05:00 +35°C° 0 mm 3 mps 741 mmHg 18%
    06:00 +37°C° 0 mm 4 mps 741 mmHg 15%
    07:00 +40°C° 0 mm 5 mps 742 mmHg 13%
    08:00 +42°C° 0 mm 5 mps 742 mmHg 11%
    09:00 +43°C° 0 mm 5 mps 742 mmHg 10%
    10:00 +46°C° 0 mm 5 mps 742 mmHg 9%
    11:00 +47°C° 0 mm 4 mps 742 mmHg 8%
    12:00 +48°C° 0 mm 4 mps 741 mmHg 8%
    13:00 +47°C° 0 mm 3 mps 740 mmHg 8%
    14:00 +48°C° 0 mm 2 mps 740 mmHg 8%
    15:00 +48°C° 0 mm 2 mps 739 mmHg 8%
    16:00 +48°C° 0 mm 2 mps 739 mmHg 8%
    17:00 +48°C° 0 mm 2 mps 739 mmHg 8%
    18:00 +46°C° 0 mm 3 mps 739 mmHg 8%
    19:00 +44°C° 0 mm 3 mps 739 mmHg 9%
    20:00 +43°C° 0 mm 4 mps 740 mmHg 10%
    21:00 +42°C° 0 mm 4 mps 740 mmHg 11%
    22:00 +41°C° 0 mm 4 mps 740 mmHg 12%
    23:00 +40°C° 0 mm 4 mps 740 mmHg 13%

    Day after tomorrow, 24 May, Thursday

    Time Temperature Precipitation Wind Pressure Humidity
    00:00 +40°C° 0 mm 4 mps 740 mmHg 14%
    01:00 +38°C° 0 mm 3 mps 740 mmHg 14%
    02:00 +37°C° 0 mm 3 mps 739 mmHg 15%
    03:00 +37°C° 0 mm 4 mps 739 mmHg 15%
    04:00 +36°C° 0 mm 5 mps 739 mmHg 15%
    05:00 +36°C° 0 mm 5 mps 739 mmHg 15%
    06:00 +38°C° 0 mm 6 mps 740 mmHg 14%
    07:00 +40°C° 0 mm 7 mps 740 mmHg 13%
    08:00 +41°C° 0 mm 7 mps 740 mmHg 12%
    09:00 +44°C° 0 mm 7 mps 740 mmHg 11%
    10:00 +46°C° 0 mm 7 mps 740 mmHg 10%
    11:00 +48°C° 0 mm 6 mps 740 mmHg 8%
    12:00 +49°C° 0 mm 6 mps 739 mmHg 8%
    13:00 +49°C° 0 mm 5 mps 738 mmHg 7%
    14:00 +50°C° 0 mm 4 mps 738 mmHg 7%
    15:00 +49°C° 0 mm 4 mps 737 mmHg 7%
    16:00 +49°C° 0 mm 4 mps 737 mmHg 7%
    17:00 +49°C° 0 mm 4 mps 736 mmHg 7%
    18:00 +47°C° 0 mm 4 mps 737 mmHg 7%
    19:00 +45°C° 0 mm 4 mps 737 mmHg 8%
    20:00 +43°C° 0 mm 4 mps 737 mmHg 9%
    21:00 +42°C° 0 mm 4 mps 737 mmHg 10%
    22:00 +41°C° 0 mm 4 mps 738 mmHg 11%
    23:00 +40°C° 0 mm 4 mps 738 mmHg 12%

    25 May, Friday

    Time Temperature Precipitation Wind Pressure Humidity
    00:00 +39°C° 0 mm 5 mps 738 mmHg 14%
    01:00 +37°C° 0 mm 5 mps 737 mmHg 15%
    02:00 +38°C° 0 mm 6 mps 737 mmHg 16%
    03:00 +36°C° 0 mm 5 mps 737 mmHg 16%
    04:00 +35°C° 0 mm 5 mps 737 mmHg 17%
    05:00 +35°C° 0 mm 4 mps 737 mmHg 18%
    06:00 +36°C° 0 mm 4 mps 738 mmHg 16%
    07:00 +39°C° 0 mm 5 mps 738 mmHg 15%
    08:00 +41°C° 0 mm 5 mps 738 mmHg 13%
    09:00 +42°C° 0 mm 4 mps 738 mmHg 12%
    10:00 +44°C° 0 mm 4 mps 738 mmHg 11%
    11:00 +45°C° 0 mm 3 mps 737 mmHg 10%
    12:00 +46°C° 0 mm 3 mps 737 mmHg 9%
    13:00 +47°C° 0 mm 3 mps 736 mmHg 9%
    14:00 +48°C° 0 mm 2 mps 735 mmHg 8%
    15:00 +48°C° 0 mm 2 mps 735 mmHg 8%
    16:00 +48°C° 0 mm 2 mps 735 mmHg 7%
    17:00 +48°C° 0 mm 2 mps 734 mmHg 7%
    18:00 +46°C° 0 mm 3 mps 735 mmHg 8%
    19:00 +45°C° 0 mm 4 mps 735 mmHg 8%
    20:00 +43°C° 0 mm 5 mps 736 mmHg 9%
    21:00 +42°C° 0 mm 6 mps 736 mmHg 11%
    22:00 +41°C° 0 mm 8 mps 736 mmHg 12%
    23:00 +40°C° 0 mm 9 mps 736 mmHg 14%

    26 May, Saturday

    Time Temperature Precipitation Wind Pressure Humidity
    00:00 +39°C° 0 mm 8 mps 736 mmHg 15%
    01:00 +39°C° 0 mm 7 mps 736 mmHg 16%
    02:00 +38°C° 0 mm 7 mps 735 mmHg 17%
    03:00 +36°C° 0 mm 6 mps 736 mmHg 17%
    04:00 +36°C° 0 mm 6 mps 736 mmHg 18%
    05:00 +35°C° 0 mm 5 mps 736 mmHg 19%
    06:00 +38°C° 0.1 mm 6 mps 736 mmHg 17%
    07:00 +39°C° 0.1 mm 7 mps 736 mmHg 15%
    08:00 +41°C° 0.1 mm 8 mps 736 mmHg 13%
    09:00 +43°C° 0.3 mm 7 mps 736 mmHg 13%
    10:00 +44°C° 0.3 mm 6 mps 736 mmHg 13%
    11:00 +45°C° 0.3 mm 5 mps 736 mmHg 13%
    12:00 +45°C° 0.2 mm 6 mps 735 mmHg 12%
    13:00 +46°C° 0.2 mm 8 mps 735 mmHg 12%
    14:00 +48°C° 0.2 mm 9 mps 734 mmHg 12%
    15:00 +48°C° 0 mm 8 mps 734 mmHg 11%
    16:00 +48°C° 0 mm 8 mps 733 mmHg 11%
    17:00 +47°C° 0 mm 7 mps 733 mmHg 10%
    18:00 +46°C° 0 mm 7 mps 734 mmHg 13%
    19:00 +44°C° 0 mm 8 mps 734 mmHg 16%
    20:00 +41°C° 0 mm 8 mps 734 mmHg 18%
    21:00 +41°C° 0 mm 8 mps 734 mmHg 19%
    22:00 +40°C° 0 mm 7 mps 735 mmHg 20%
    23:00 +40°C° 0 mm 6 mps 735 mmHg 20%

    27 May, Sunday

    Time Temperature Precipitation Wind Pressure Humidity
    00:00 +39°C° 0 mm 5 mps 735 mmHg 22%
    01:00 +39°C° 0 mm 5 mps 734 mmHg 23%
    02:00 +37°C° 0 mm 4 mps 734 mmHg 24%
    03:00 +37°C° 0 mm 4 mps 734 mmHg 25%
    04:00 +36°C° 0 mm 3 mps 735 mmHg 26%
    05:00 +35°C° 0 mm 3 mps 735 mmHg 26%
    06:00 +36°C° 0 mm 3 mps 736 mmHg 24%
    07:00 +38°C° 0 mm 4 mps 736 mmHg 22%
    08:00 +40°C° 0 mm 4 mps 736 mmHg 20%
    09:00 +41°C° 0 mm 4 mps 736 mmHg 18%
    10:00 +43°C° 0 mm 3 mps 736 mmHg 17%
    11:00 +44°C° 0 mm 3 mps 736 mmHg 15%
    12:00 +45°C° 0 mm 4 mps 735 mmHg 14%
    13:00 +47°C° 0 mm 5 mps 735 mmHg 12%
    14:00 +48°C° 0 mm 5 mps 734 mmHg 11%
    15:00 +47°C° 0 mm 6 mps 735 mmHg 11%
    16:00 +47°C° 0 mm 6 mps 735 mmHg 11%
    17:00 +46°C° 0 mm 7 mps 735 mmHg 12%
    18:00 +45°C° 0 mm 7 mps 736 mmHg 14%
    19:00 +44°C° 0 mm 7 mps 736 mmHg 16%
    20:00 +41°C° 0 mm 8 mps 737 mmHg 18%
    21:00 +41°C° 0 mm 8 mps 737 mmHg 20%
    22:00 +40°C° 0 mm 8 mps 737 mmHg 21%
    23:00 +39°C° 0 mm 8 mps 738 mmHg 23%
    Show more